Regional Weather Roundup
Issued by NWS Grand Forks, ND

Home | Current Version | Previous Version | Text Only | Print | Product List | Glossary Off
Versions: 1 2 3 4 5 6 7 8 9 10 11 12 13 14 15 16 17 18 19 20 21 22 23 24 25 26 27 28 29 30 31 32 33 34 35 36 37 38 39 40 41 42 43 44 45 46 47 48 49 50

000
ASUS43 KFGF 030431
RWRFGF
PRAIRIE TO PINES  WEATHER ROUNDUP
NATIONAL WEATHER SERVICE EASTERN NORTH DAKOTA/GRAND FORKS ND
1100 PM CDT MON MAY 02 2016

 **SATELLITE DATA USED TO AUGMENT SKY COVER AT AUTOMATED STATIONS**
 *****  WEATHER ACROSS EASTERN NORTH DAKOTA  *****

CITY           SKY/WX    TMP DP  RH WIND       PRES   REMARKS
GRAND FORKS    CLOUDY    56  38  50 W12       29.95S
GRAND FRKS AFB CLOUDY    56  37  48 W9        29.96R
DEVILS LAKE    MOCLDY    53  40  61 SW10      29.99S
FARGO          CLOUDY    53  35  50 W9        29.97S
WAHPETON ARPT  CLEAR     50  32  50 NW6       29.98F
$$

 ***** WEATHER ACROSS CENTRAL AND WESTERN NORTH DAKOTA  *****

CITY           SKY/WX    TMP DP  RH WIND       PRES   REMARKS
BISMARCK       CLEAR     50  43  77 CALM      30.02R
MINOT          MOCLDY    58  35  42 S5        29.98S
JAMESTOWN      CLOUDY    42  35  76 CALM      30.01R
MINOT AFB      PTCLDY    51  36  57 SW9       29.97S HAZE
GARRISON         N/A     54  36  50 CALM      30.00S
WILLISTON      CLEAR     47  36  65 N3        30.01R
DICKINSON      CLEAR     47  32  56 E3        30.02R
HETTINGER      CLEAR     43  33  68 NE7       30.05R
$$

 *****  OTHER AIRPORT OBSERVATIONS IN OUR AREA  *****

CITY           SKY/WX    TMP DP  RH WIND       PRES   REMARKS
WALHALLA       FAIR      57  36  44 W8        29.94S
GRAFTON AIRPOR FAIR      55  39  54 W12       29.96R
VALLEY CITY AR MOCLDY    48  39  71 W10       30.02S
CANDO          FAIR      50  34  53 SW10      30.00S
CAVALIER APRT  FAIR      57  37  47 W10       29.93S
GWINNER        FAIR      48  39  71 W8        30.00F
SHEYENNE NWR     N/A     50  36  58 NW5       29.95S
ROLLA          CLOUDY    48  34  57 W10       29.99R
 ***** THE ABOVE OBSERVATIONS ARE NON NWS ARE NOT QUALITY
       CONTROLLED AND MAY MIS-REPORT RAIN FOR SNOW...
$$

  *****  WEATHER ACROSS NORTHERN MINNESOTA  *****

CITY           SKY/WX    TMP DP  RH WIND       PRES   REMARKS
FLAG ISLAND    CLOUDY    54  34  47 SW9       29.87F
WARROAD        CLOUDY    55  36  47 SW6       29.90F
ROSEAU         CLOUDY    54  37  54 SW7       29.91F
HALLOCK        CLOUDY    54  25  32 CALM      29.92S
THF RVR FALLS  CLOUDY    54  25  32 CALM      29.95S
BAUDETTE       CLOUDY    50  31  48 SW6       29.91F
WASKISH        CLOUDY    48  39  71 CALM      29.93S
CROOKSTON      CLOUDY    55  36  47 W10       29.96S
STEPHEN NDAWN    N/A     54  30  40 SW3         N/A
GREENBUSH NDAW   N/A     50  34  53 SW3         N/A
$$
  *****  WEATHER ACROSS CENTRAL AND WEST MINNESOTA  *****

CITY           SKY/WX    TMP DP  RH WIND       PRES   REMARKS
FOSSTON        CLOUDY    50  30  46 W8        29.96S
BEMIDJI        CLEAR     46  30  54 CALM      29.94F
PARK RAPIDS    CLEAR     48  32  53 SW6       29.95F
ELBOW LAKE     FAIR      53  33  46 SW6       29.99S
WADENA         CLEAR     48  32  53 SW5       29.97S
DETROIT LAKES  CLEAR     54  32  43 W6        29.99R
MOORHEAD       CLOUDY    55  36  47 W6        29.98S
FERGUS FALLS   CLEAR     54  36  50 NW10      29.96S
MORRIS MN      CLEAR     54  32  43 CALM      29.98S
STAPLES        CLEAR     48  30  49 SW3       29.97F
$$
  *****  WEATHER ELSEWHERE ACROSS MINNESOTA  *****

CITY           SKY/WX    TMP DP  RH WIND       PRES   REMARKS
DULUTH         PTCLDY    47  31  53 CALM      29.95F
INTRNTL FALLS  CLOUDY    40  34  79 S3        29.90F
ELY            PTCLDY    52  30  43 S5        29.92S
CLOQUET        CLEAR     45  32  61 CALM      29.96F
WHEATON        CLEAR     55  39  54 NW3       30.01S
BRAINERD       CLEAR     49  32  52 CALM      29.97F
HIBBING        CLEAR     39  31  72 CALM      29.93F
ALEXANDRIA     CLEAR     52  30  43 SW5       30.00S
SAINT CLOUD    CLEAR     49  34  56 CALM      29.99S
MINNEAPOLIS    CLEAR     57  32  38 SW5       30.00F
$$

  *****  WEATHER ACROSS SOUTH DAKOTA  *****

CITY           SKY/WX    TMP DP  RH WIND       PRES   REMARKS
SIOUX FALLS    CLEAR     44  38  79 CALM      30.04R
BROOKINGS      CLEAR     49  37  63 S8        30.03R
WATERTOWN      CLEAR     50  40  68 NW3       30.01S
HURON          CLEAR     48  43  82 E5        30.02R
SISSETON         N/A     47  38  71 W3        29.99R
ABERDEEN       CLEAR     46  38  73 CALM      30.02R
MITCHELL       CLEAR     50  46  86 S3        30.03R
PIERRE         CLEAR     44  39  82 CALM      30.02R
MOBRIDGE       CLEAR     48  44  86 E6        29.99S
RAPID CITY     CLEAR     42  36  79 N7        30.05R
$$

  *****  SOME WEATHER IN NEARBY STATES *****

CITY           SKY/WX    TMP DP  RH WIND       PRES   REMARKS
GLASGOW MT     CLEAR     55  41  59 NE10      30.03R
GREAT FALLS MT CLEAR     56  33  42 SE7       30.10R
CHEYENNE WY    CLEAR     46  24  42 NW9       30.15R
SCOTTSBLUFF NE CLEAR     44  35  70 N7        30.06R
OMAHA NE       PTCLDY    52  41  66 CALM      30.05R
DES MOINES IA  CLEAR     53  42  66 S5        30.05F
DAVENPORT IA   MOCLDY    49  44  83 W6        30.03S
CHICAGO IL     CLEAR     45  36  70 CALM      30.00F
EAU CLAIRE WI  CLEAR     50  35  56 CALM      29.99S
LA CROSSE WI   CLOUDY    54  43  66 S6        30.00F
$$

  *****  SOME NATIONAL WEATHER *****

CITY           SKY/WX    TMP DP  RH WIND       PRES   REMARKS
LA GUARDIA NY  CLOUDY    57  50  77 S6        29.94R
RALEIGH NC     CLOUDY    68  63  84 S12G21    29.90F
ATLANTA GA     CLOUDY    68  62  81 NW5       29.93F
NEW ORLEANS LA PTCLDY    71  68  90 S5        29.97S
OKLAHOMA CITY  CLEAR     48  42  80 CALM      30.12S
ALBUQUERQUE NM CLOUDY    59  30  33 SW9       30.18R
SALT LAKE CITY CLEAR     59  37  44 NW6       30.17R
LOS ANGELES CA CLEAR     59  52  77 SW7       29.96R
BOISE ID       CLEAR     63  30  28 E5        30.08R
SEATTLE WA     PTCLDY    71  40  32 SW8       29.93R
$$

*** WEATHER ACROSS MANITOBA...SASKATCHEWAN AND ONTARIO ***
                ***ONTARIO***

CITY           SKY/WX    TMP DP  RH WIND       PRES   REMARKS
GERALDTON      CLOUDY    52  32  46 SW10      29.84F
THUNDER BAY    CLOUDY    43  34  70 NE2       29.89F
SIOUX LOOKOUT  CLOUDY    57  30  35 W5        29.82F
TORONTO        PTCLDY    45  36  70 N3        29.96F
BIG TROUT LK   CLOUDY    46  43  87 N5        29.59F
PICKLE LAKE    NOT AVBL
DRYDEN         CLOUDY    54  28  37 SW7       29.84F
KENORA         CLOUDY    54  27  35 SW8       29.86F
$$
                *** MANITOBA***

CITY           SKY/WX    TMP DP  RH WIND       PRES   REMARKS
BRANDON        MOCLDY    50  39  66 W7        29.94S
DAUPHIN        CLEAR     54  39  58 SW10      29.89F
ISLAND LAKE    PTCLDY    50  28  43 NW7       29.73F
PILOT MOUND      N/A     50  32  50 SW9         N/A
THE PAS        CLEAR     52  28  40 N8        29.94R
THOMPSON       CLEAR     46  30  53 N13G23    29.88R
WINNIPEG       PTCLDY    55  36  47 SW6       29.89F
LYNN LAKE      CLEAR     43  30  61 N8        29.99R
CHURCHILL      CLOUDY    32  30  93 N23G32    29.83R WCI  19
GILLAM         CLOUDY    39  34  81 N17G28    29.80R
$$
                ***SASKATCHEWAN***

CITY           SKY/WX    TMP DP  RH WIND       PRES   REMARKS
ESTEVAN        PTCLDY    50  34  53 NW5       29.99R
KINDERSLEY     PTCLDY    64  36  34 W2        30.01S
LLOYDMINSTER   PTCLDY    64  37  36 S7        30.00R
PRINCE ALBERT  MOCLDY    61  37  41 CALM      29.97
REGINA         PTCLDY    55  28  35 S3        30.01R
YORKTON        CLEAR     61  36  39 SW8       29.93F
N. BATTLEFORD  CLEAR     59  39  47 SE2       30.01R
LA RONGE       CLEAR     50  32  50 NE3       30.00R
SASKATOON      CLEAR     63  37  39 NE3       30.00R
SWIFT CURRENT  CLEAR     57  34  41 S9        30.03R
$$
NOTE: THESE ARE AUTOMATED STATIONS WITH LIMITED QUALITY CONTROL
      "FAIR" INDICATES FEW OR NO CLOUDS BELOW 12,000 FEET WITH NO
      SIGNIFICANT WEATHER AND/OR OBSTRUCTIONS TO VISIBILITY.
      SKY/WX - SKY CONDITION AND SIGNIFICANT WEATHER.
      TMP - AIR TEMPERATURE.    DP   - DEWPOINT TEMPERATURE.
      RH  - RELATIVE HUMIDITY.  PRES - PRESSURE.
      HX  - HEAT INDEX.         WCI  - WIND CHILL INDEX.
$




USA.gov is the U.S. government's official web portal to all federal, state and local government web resources and services.